| time (UTC) | temp F | wind direction | speed knots | gust knots | rain 1hr in | rain 24hr in | rain mn in | humidity % | barometer mb |
| 20260503055118 | 54 | 182 | 0.9 | 1.7 | 0.00 | 0.00 | 0.00 | 61 | 994.5 |
| 20260503054718 | 54 | 175 | 2.6 | 4.3 | 0.00 | 0.00 | 0.00 | 62 | 994.5 |
| 20260503054316 | 54 | 140 | 2.6 | 7.0 | 0.00 | 0.00 | 0.00 | 63 | 994.4 |
| 20260503053916 | 54 | 148 | 1.7 | 3.5 | 0.00 | 0.00 | 0.00 | 63 | 994.4 |
| 20260503053549 | 54 | 125 | 1.7 | 3.5 | 0.00 | 0.00 | 0.00 | 64 | 994.5 |
| 20260503053516 | 54 | 125 | 1.7 | 3.5 | 0.00 | 0.00 | 0.00 | 64 | 994.5 |
| 20260503053116 | 53 | 112 | 3.5 | 5.2 | 0.00 | 0.00 | 0.00 | 64 | 994.4 |
| 20260503052716 | 53 | 105 | 3.5 | 4.3 | 0.00 | 0.00 | 0.00 | 65 | 994.5 |
| 20260503052306 | 53 | 100 | 2.6 | 3.5 | 0.00 | 0.00 | 0.00 | 65 | 994.5 |
| 20260503051905 | 53 | 99 | 2.6 | 4.3 | 0.00 | 0.00 | 0.00 | 65 | 994.5 |
| 20260503051504 | 52 | 103 | 2.6 | 4.3 | 0.00 | 0.00 | 0.00 | 66 | 994.5 |
| 20260503051101 | 52 | 97 | 3.5 | 4.3 | 0.00 | 0.00 | 0.00 | 66 | 994.6 |
| 20260503050701 | 52 | 99 | 2.6 | 3.5 | 0.00 | 0.00 | 0.00 | 66 | 994.6 |
| 20260503050259 | 52 | 98 | 1.7 | 2.6 | 0.00 | 0.00 | 0.00 | 66 | 994.6 |
| 20260503045859 | 51 | 126 | 1.7 | 2.6 | 0.00 | 0.00 | 0.00 | 66 | 994.6 |
| 20260503045459 | 51 | 112 | 0.9 | 1.7 | 0.00 | 0.00 | 0.00 | 67 | 994.6 |
| 20260503045059 | 51 | 102 | 0.9 | 1.7 | 0.00 | 0.00 | 0.00 | 67 | 994.6 |
| 20260503044659 | 51 | 110 | 0.0 | 1.7 | 0.00 | 0.00 | 0.00 | 67 | 994.6 |
| 20260503044257 | 51 | 116 | 0.9 | 2.6 | 0.00 | 0.00 | 0.00 | 67 | 994.6 |
| 20260503043857 | 50 | 125 | 1.7 | 2.6 | 0.00 | 0.00 | 0.00 | 68 | 994.6 |
| 20260503043456 | 50 | 114 | 0.9 | 1.7 | 0.00 | 0.00 | 0.00 | 68 | 994.6 |
| 20260503043056 | 50 | 149 | 1.7 | 3.5 | 0.00 | 0.00 | 0.00 | 68 | 994.6 |
| 20260503042656 | 50 | 118 | 1.7 | 3.5 | 0.00 | 0.00 | 0.00 | 68 | 994.6 |
| 20260503042254 | 50 | 101 | 0.9 | 2.6 | 0.00 | 0.00 | 0.00 | 68 | 994.6 |
| 20260503041854 | 50 | 110 | 0.0 | 0.0 | 0.00 | 0.00 | 0.00 | 68 | 994.6 |
| 20260503041454 | 50 | 120 | 0.9 | 0.9 | 0.00 | 0.00 | 0.00 | 69 | 994.5 |
| 20260503041054 | 49 | 123 | 1.7 | 4.3 | 0.00 | 0.00 | 0.00 | 69 | 994.5 |
| 20260503040654 | 49 | 126 | 0.9 | 1.7 | 0.00 | 0.00 | 0.00 | 69 | 994.5 |
| 20260503040325 | 49 | 117 | 1.7 | 2.6 | 0.00 | 0.00 | 0.00 | 69 | 994.4 |
| 20260503040252 | 49 | 117 | 1.7 | 2.6 | 0.00 | 0.00 | 0.00 | 69 | 994.4 |
| 20260503035849 | 49 | 130 | 0.9 | 1.7 | 0.00 | 0.00 | 0.00 | 69 | 994.4 |
| 20260503035450 | 49 | 105 | 2.6 | 3.5 | 0.00 | 0.00 | 0.00 | 69 | 994.5 |
| 20260503035050 | 49 | 107 | 3.5 | 5.2 | 0.00 | 0.00 | 0.00 | 69 | 994.5 |
| 20260503034650 | 49 | 105 | 3.5 | 4.3 | 0.00 | 0.00 | 0.00 | 69 | 994.5 |
| 20260503034247 | 49 | 105 | 2.6 | 4.3 | 0.00 | 0.00 | 0.00 | 69 | 994.6 |
| 20260503033848 | 49 | 110 | 2.6 | 4.3 | 0.00 | 0.00 | 0.00 | 68 | 994.6 |
| 20260503033448 | 49 | 114 | 2.6 | 3.5 | 0.00 | 0.00 | 0.00 | 68 | 994.5 |
| 20260503033048 | 49 | 115 | 2.6 | 3.5 | 0.00 | 0.00 | 0.00 | 68 | 994.6 |
| 20260503032648 | 50 | 114 | 2.6 | 3.5 | 0.00 | 0.00 | 0.00 | 68 | 994.6 |
| 20260503032246 | 50 | 112 | 2.6 | 3.5 | 0.00 | 0.00 | 0.00 | 67 | 994.6 |
| 20260503031846 | 50 | 113 | 1.7 | 2.6 | 0.00 | 0.00 | 0.00 | 67 | 994.6 |
| 20260503031446 | 50 | 110 | 1.7 | 2.6 | 0.00 | 0.00 | 0.00 | 67 | 994.7 |
| 20260503031046 | 50 | 114 | 1.7 | 2.6 | 0.00 | 0.00 | 0.00 | 67 | 994.7 |
| 20260503030646 | 50 | 103 | 0.9 | 0.9 | 0.00 | 0.00 | 0.00 | 67 | 994.7 |
| 20260503030244 | 50 | 109 | 0.9 | 1.7 | 0.00 | 0.00 | 0.00 | 66 | 994.7 |
| 20260503025844 | 50 | 112 | 0.9 | 1.7 | 0.00 | 0.00 | 0.00 | 66 | 994.6 |
| 20260503025444 | 50 | 110 | 1.7 | 2.6 | 0.00 | 0.00 | 0.00 | 66 | 994.7 |
| 20260503025034 | 50 | 106 | 1.7 | 2.6 | 0.00 | 0.00 | 0.00 | 66 | 994.7 |
| 20260503024633 | 51 | 116 | 0.0 | 0.0 | 0.00 | 0.00 | 0.00 | 66 | 994.7 |
| 20260503024230 | 51 | 117 | 0.9 | 1.7 | 0.00 | 0.00 | 0.00 | 65 | 994.7 |
| 20260503023829 | 51 | 114 | 1.7 | 3.5 | 0.00 | 0.00 | 0.00 | 65 | 994.7 |
| 20260503023029 | 51 | 105 | 1.7 | 2.6 | 0.00 | 0.00 | 0.00 | 65 | 994.7 |
| 20260503022629 | 51 | 108 | 0.9 | 1.7 | 0.00 | 0.00 | 0.00 | 65 | 994.8 |
| 20260503022227 | 51 | 110 | 0.0 | 0.9 | 0.00 | 0.00 | 0.00 | 64 | 994.9 |
| 20260503021827 | 51 | 108 | 0.9 | 0.9 | 0.00 | 0.00 | 0.00 | 64 | 994.8 |
| 20260503021427 | 51 | 108 | 0.0 | 0.0 | 0.00 | 0.00 | 0.00 | 64 | 994.9 |
| 20260503021059 | 52 | 108 | 0.0 | 0.0 | 0.00 | 0.00 | 0.00 | 63 | 994.9 |
| 20260503021027 | 52 | 108 | 0.0 | 0.0 | 0.00 | 0.00 | 0.00 | 63 | 994.9 |
| 20260503020626 | 52 | 108 | 0.0 | 0.0 | 0.00 | 0.00 | 0.00 | 63 | 994.9 |
| 20260503020224 | 52 | 109 | 0.0 | 0.0 | 0.00 | 0.00 | 0.00 | 63 | 994.9 |
| 20260503015824 | 52 | 108 | 0.9 | 0.9 | 0.00 | 0.00 | 0.00 | 62 | 994.9 |
| 20260503015424 | 52 | 109 | 0.9 | 1.7 | 0.00 | 0.00 | 0.00 | 62 | 994.9 |
| 20260503014624 | 53 | 108 | 0.0 | 0.0 | 0.00 | 0.00 | 0.00 | 62 | 994.9 |
| 20260503014222 | 53 | 109 | 0.0 | 0.0 | 0.00 | 0.00 | 0.00 | 61 | 995.0 |
| 20260503013819 | 53 | 109 | 0.0 | 0.0 | 0.00 | 0.00 | 0.00 | 61 | 995.0 |
| 20260503013419 | 53 | 108 | 0.9 | 0.9 | 0.00 | 0.00 | 0.00 | 60 | 995.1 |
| 20260503013019 | 53 | 106 | 1.7 | 2.6 | 0.00 | 0.00 | 0.00 | 60 | 995.1 |
| 20260503012619 | 53 | 103 | 2.6 | 3.5 | 0.00 | 0.00 | 0.00 | 60 | 995.1 |
| 20260503012217 | 53 | 106 | 1.7 | 2.6 | 0.00 | 0.00 | 0.00 | 60 | 995.1 |
| 20260503011817 | 54 | 104 | 1.7 | 1.7 | 0.00 | 0.00 | 0.00 | 59 | 995.1 |
| 20260503011016 | 54 | 121 | 0.0 | 0.9 | 0.00 | 0.00 | 0.00 | 59 | 995.1 |
| 20260503010616 | 54 | 120 | 0.0 | 0.9 | 0.00 | 0.00 | 0.00 | 59 | 995.2 |
| 20260503010214 | 54 | 120 | 0.0 | 0.9 | 0.00 | 0.00 | 0.00 | 58 | 995.2 |
| 20260503005814 | 54 | 124 | 0.9 | 1.7 | 0.00 | 0.00 | 0.00 | 58 | 995.2 |
| 20260503005414 | 55 | 128 | 0.0 | 0.9 | 0.00 | 0.00 | 0.00 | 58 | 995.2 |
| 20260503005014 | 55 | 127 | 0.9 | 1.7 | 0.00 | 0.00 | 0.00 | 57 | 995.2 |
| 20260503004614 | 55 | 132 | 0.9 | 0.9 | 0.00 | 0.00 | 0.00 | 57 | 995.2 |
| 20260503004212 | 55 | 132 | 0.9 | 2.6 | 0.00 | 0.00 | 0.00 | 57 | 995.3 |
| 20260503003812 | 55 | 132 | 0.0 | 0.9 | 0.00 | 0.00 | 0.00 | 56 | 995.3 |
| 20260503003412 | 56 | 137 | 0.9 | 2.6 | 0.00 | 0.00 | 0.00 | 56 | 808.8 |
| 20260503002758 | 56 | 162 | 1.7 | 3.5 | 0.00 | 0.00 | 0.00 | 56 | 995.4 |
| 20260503002359 | 56 | 154 | 0.9 | 1.7 | 0.00 | 0.00 | 0.00 | 55 | 995.4 |
| 20260503001959 | 56 | 153 | 1.7 | 4.3 | 0.00 | 0.00 | 0.00 | 55 | 995.4 |
| 20260503001559 | 56 | 152 | 1.7 | 2.6 | 0.00 | 0.00 | 0.00 | 55 | 995.4 |
| 20260503001157 | 56 | 162 | 1.7 | 3.5 | 0.00 | 0.00 | 0.00 | 55 | 995.4 |
| 20260503000757 | 56 | 150 | 1.7 | 3.5 | 0.00 | 0.00 | 0.00 | 55 | 995.4 |
| 20260503000357 | 57 | 152 | 1.7 | 4.3 | 0.00 | 0.00 | 0.00 | 54 | 995.5 |
| 20260502235947 | 57 | 138 | 1.7 | 3.5 | 0.00 | 0.00 | 0.00 | 54 | 995.5 |
| 20260502235546 | 57 | 151 | 2.6 | 5.2 | 0.00 | 0.00 | 0.00 | 54 | 995.5 |
| 20260502235143 | 57 | 156 | 3.5 | 5.2 | 0.00 | 0.00 | 0.00 | 54 | 995.6 |
| 20260502234742 | 57 | 163 | 2.6 | 4.3 | 0.00 | 0.00 | 0.00 | 54 | 995.6 |
| 20260502234342 | 57 | 165 | 3.5 | 5.2 | 0.00 | 0.00 | 0.00 | 54 | 995.6 |
| 20260502233943 | 57 | 160 | 2.6 | 6.1 | 0.00 | 0.00 | 0.00 | 53 | 995.7 |
| 20260502233542 | 57 | 160 | 2.6 | 5.2 | 0.00 | 0.00 | 0.00 | 53 | 995.7 |
| 20260502233140 | 58 | 157 | 1.7 | 4.3 | 0.00 | 0.00 | 0.00 | 53 | 995.7 |
| 20260502232340 | 58 | 137 | 2.6 | 5.2 | 0.00 | 0.00 | 0.00 | 52 | 995.7 |
| 20260502231940 | 58 | 154 | 2.6 | 5.2 | 0.00 | 0.00 | 0.00 | 52 | 995.7 |
| 20260502231539 | 58 | 159 | 3.5 | 6.1 | 0.00 | 0.00 | 0.00 | 52 | 995.7 |
| 20260502231137 | 58 | 167 | 4.3 | 7.0 | 0.00 | 0.00 | 0.00 | 52 | 995.8 |
| 20260502230737 | 58 | 162 | 3.5 | 5.2 | 0.00 | 0.00 | 0.00 | 52 | 995.9 |
| 20260502230337 | 58 | 157 | 3.5 | 4.3 | 0.00 | 0.00 | 0.00 | 52 | 995.9 |
| 20260502225938 | 58 | 162 | 3.5 | 7.0 | 0.00 | 0.00 | 0.00 | 51 | 995.9 |
| 20260502225538 | 59 | 163 | 2.6 | 5.2 | 0.00 | 0.00 | 0.00 | 51 | 995.9 |
| 20260502224733 | 59 | 155 | 3.5 | 6.1 | 0.00 | 0.00 | 0.00 | 51 | 995.8 |
| 20260502224332 | 59 | 138 | 3.5 | 5.2 | 0.00 | 0.00 | 0.00 | 51 | 995.8 |
| 20260502223932 | 59 | 150 | 3.5 | 6.1 | 0.00 | 0.00 | 0.00 | 51 | 995.9 |
| 20260502223533 | 59 | 140 | 1.7 | 4.3 | 0.00 | 0.00 | 0.00 | 51 | 995.9 |
| 20260502223131 | 59 | 135 | 2.6 | 7.8 | 0.00 | 0.00 | 0.00 | 51 | 995.9 |
| 20260502222731 | 59 | 138 | 2.6 | 3.5 | 0.00 | 0.00 | 0.00 | 51 | 996.0 |
| 20260502222331 | 59 | 150 | 2.6 | 5.2 | 0.00 | 0.00 | 0.00 | 50 | 995.9 |
| 20260502221930 | 59 | 142 | 2.6 | 4.3 | 0.00 | 0.00 | 0.00 | 50 | 996.0 |
| 20260502221530 | 59 | 122 | 3.5 | 7.0 | 0.00 | 0.00 | 0.00 | 50 | 996.0 |
| 20260502221128 | 60 | 143 | 2.6 | 6.1 | 0.00 | 0.00 | 0.00 | 50 | 996.0 |
| 20260502220728 | 60 | 131 | 1.7 | 6.1 | 0.00 | 0.00 | 0.00 | 50 | 996.0 |
| 20260502220328 | 60 | 128 | 2.6 | 5.2 | 0.00 | 0.00 | 0.00 | 50 | 996.0 |
| 20260502215928 | 60 | 134 | 2.6 | 5.2 | 0.00 | 0.00 | 0.00 | 50 | 996.1 |
| 20260502215528 | 60 | 149 | 1.7 | 4.3 | 0.00 | 0.00 | 0.00 | 50 | 996.0 |
| 20260502215126 | 60 | 125 | 2.6 | 5.2 | 0.00 | 0.00 | 0.00 | 50 | 996.1 |
| 20260502214726 | 60 | 130 | 3.5 | 5.2 | 0.00 | 0.00 | 0.00 | 49 | 996.1 |
| 20260502214326 | 60 | 135 | 3.5 | 6.1 | 0.00 | 0.00 | 0.00 | 49 | 809.2 |
| 20260502214116 | 60 | 144 | 3.5 | 7.0 | 0.00 | 0.00 | 0.00 | 49 | 996.2 |
| 20260502213713 | 60 | 147 | 2.6 | 5.2 | 0.00 | 0.00 | 0.00 | 49 | 996.2 |
| 20260502213312 | 60 | 138 | 3.5 | 8.7 | 0.00 | 0.00 | 0.00 | 49 | 996.2 |
| 20260502212911 | 60 | 130 | 3.5 | 5.2 | 0.00 | 0.00 | 0.00 | 49 | 996.3 |
| 20260502212512 | 61 | 135 | 2.6 | 5.2 | 0.00 | 0.00 | 0.00 | 49 | 996.3 |
| 20260502212110 | 61 | 129 | 2.6 | 5.2 | 0.00 | 0.00 | 0.00 | 49 | 996.3 |
| 20260502211710 | 61 | 125 | 2.6 | 6.1 | 0.00 | 0.00 | 0.00 | 49 | 996.3 |
| 20260502211310 | 61 | 152 | 2.6 | 5.2 | 0.00 | 0.00 | 0.00 | 49 | 996.3 |
| 20260502210910 | 61 | 136 | 3.5 | 6.1 | 0.00 | 0.00 | 0.00 | 49 | 996.3 |
| 20260502210510 | 61 | 140 | 3.5 | 5.2 | 0.00 | 0.00 | 0.00 | 49 | 996.3 |
| 20260502210106 | 61 | 128 | 4.3 | 6.1 | 0.00 | 0.00 | 0.00 | 49 | 996.3 |
| 20260502205706 | 61 | 122 | 4.3 | 7.0 | 0.00 | 0.00 | 0.00 | 49 | 996.3 |
| 20260502205306 | 61 | 135 | 2.6 | 6.1 | 0.00 | 0.00 | 0.00 | 49 | 996.4 |
| 20260502204907 | 61 | 135 | 2.6 | 5.2 | 0.00 | 0.00 | 0.00 | 49 | 996.3 |
| 20260502204507 | 61 | 130 | 4.3 | 8.7 | 0.00 | 0.00 | 0.00 | 49 | 996.4 |
| 20260502204104 | 61 | 138 | 4.3 | 10.4 | 0.00 | 0.00 | 0.00 | 49 | 996.3 |
| 20260502203705 | 60 | 124 | 3.5 | 7.8 | 0.00 | 0.00 | 0.00 | 49 | 996.4 |
| 20260502203305 | 61 | 111 | 3.5 | 6.1 | 0.00 | 0.00 | 0.00 | 50 | 996.4 |
| 20260502202902 | 61 | 118 | 4.3 | 7.8 | 0.00 | 0.00 | 0.00 | 50 | 996.4 |
| 20260502202502 | 61 | 108 | 0.9 | 2.6 | 0.00 | 0.00 | 0.00 | 50 | 996.5 |
| 20260502202100 | 62 | 121 | 0.9 | 1.7 | 0.00 | 0.00 | 0.00 | 49 | 996.5 |
| 20260502201700 | 62 | 113 | 2.6 | 3.5 | 0.00 | 0.00 | 0.00 | 49 | 996.5 |
| 20260502201301 | 62 | 97 | 4.3 | 6.1 | 0.00 | 0.00 | 0.00 | 48 | 996.6 |
| 20260502200901 | 62 | 104 | 3.5 | 5.2 | 0.00 | 0.00 | 0.00 | 47 | 996.5 |
| 20260502200501 | 63 | 173 | 1.7 | 1.7 | 0.00 | 0.00 | 0.00 | 47 | 996.3 |
| 20260502200058 | 63 | 159 | 0.9 | 1.7 | 0.00 | 0.00 | 0.00 | 46 | 996.4 |
| 20260502195659 | 63 | 176 | 1.7 | 3.5 | 0.00 | 0.00 | 0.00 | 46 | 996.4 |
| 20260502195256 | 63 | 178 | 2.6 | 3.5 | 0.00 | 0.00 | 0.00 | 46 | 996.4 |
| 20260502194856 | 63 | 175 | 1.7 | 2.6 | 0.00 | 0.00 | 0.00 | 46 | 996.4 |
| 20260502194456 | 63 | 169 | 1.7 | 3.5 | 0.00 | 0.00 | 0.00 | 46 | 996.3 |
| 20260502194054 | 64 | 172 | 1.7 | 2.6 | 0.00 | 0.00 | 0.00 | 45 | 996.4 |
| 20260502193654 | 64 | 175 | 2.6 | 3.5 | 0.00 | 0.00 | 0.00 | 45 | 996.4 |
| 20260502193254 | 64 | 185 | 1.7 | 2.6 | 0.00 | 0.00 | 0.00 | 45 | 996.4 |
| 20260502192854 | 64 | 174 | 1.7 | 2.6 | 0.00 | 0.00 | 0.00 | 45 | 996.4 |
| 20260502192454 | 65 | 171 | 1.7 | 3.5 | 0.00 | 0.00 | 0.00 | 44 | 996.5 |
| 20260502192052 | 65 | 183 | 1.7 | 2.6 | 0.00 | 0.00 | 0.00 | 44 | 996.5 |
| 20260502191649 | 65 | 182 | 1.7 | 3.5 | 0.00 | 0.00 | 0.00 | 44 | 996.4 |
| 20260502191249 | 65 | 180 | 1.7 | 2.6 | 0.00 | 0.00 | 0.00 | 43 | 996.4 |
| 20260502190441 | 66 | 182 | 1.7 | 2.6 | 0.00 | 0.00 | 0.00 | 43 | 996.4 |
| 20260502190038 | 66 | 178 | 1.7 | 2.6 | 0.00 | 0.00 | 0.00 | 42 | 996.4 |
| 20260502185237 | 67 | 163 | 1.7 | 1.7 | 0.00 | 0.00 | 0.00 | 42 | 996.3 |
| 20260502184837 | 68 | 165 | 1.7 | 3.5 | 0.00 | 0.00 | 0.00 | 41 | 996.3 |
| 20260502184437 | 68 | 164 | 1.7 | 2.6 | 0.00 | 0.00 | 0.00 | 41 | 996.3 |
| 20260502184035 | 69 | 169 | 1.7 | 2.6 | 0.00 | 0.00 | 0.00 | 40 | 996.3 |
| 20260502183635 | 69 | 171 | 1.7 | 3.5 | 0.00 | 0.00 | 0.00 | 40 | 996.4 |
| 20260502183235 | 70 | 170 | 1.7 | 2.6 | 0.00 | 0.00 | 0.00 | 39 | 996.3 |
| 20260502182835 | 71 | 167 | 0.9 | 1.7 | 0.00 | 0.00 | 0.00 | 38 | 996.2 |
| 20260502182435 | 71 | 164 | 0.9 | 1.7 | 0.00 | 0.00 | 0.00 | 37 | 996.2 |
| 20260502182033 | 72 | 156 | 0.9 | 1.7 | 0.00 | 0.00 | 0.00 | 37 | 996.2 |
| 20260502181633 | 73 | 149 | 0.9 | 1.7 | 0.00 | 0.00 | 0.00 | 36 | 996.2 |
| 20260502181233 | 74 | 138 | 0.9 | 1.7 | 0.00 | 0.00 | 0.00 | 35 | 996.2 |
| 20260502180831 | 75 | 159 | 1.7 | 2.6 | 0.00 | 0.00 | 0.00 | 34 | 996.2 |
| 20260502180431 | 76 | 172 | 1.7 | 2.6 | 0.00 | 0.00 | 0.00 | 33 | 996.2 |
| 20260502170423 | 85 | 111 | 0.9 | 1.7 | 0.00 | 0.00 | 0.00 | 26 | 996.4 |
| 20260502164010 | 85 | 77 | 1.7 | 3.5 | 0.00 | 0.00 | 0.00 | 26 | 996.7 |
| 20260502163609 | 85 | 118 | 0.9 | 1.7 | 0.00 | 0.00 | 0.00 | 26 | 996.7 |
| 20260502163208 | 85 | 91 | 0.0 | 0.0 | 0.00 | 0.00 | 0.00 | 26 | 996.7 |
| 20260502162807 | 85 | 91 | 1.7 | 1.7 | 0.00 | 0.00 | 0.00 | 26 | 996.8 |
| 20260502162407 | 85 | 117 | 1.7 | 3.5 | 0.00 | 0.00 | 0.00 | 27 | 996.8 |
| 20260502162005 | 85 | 90 | 2.6 | 4.3 | 0.00 | 0.00 | 0.00 | 27 | 996.9 |
| 20260502161605 | 85 | 86 | 1.7 | 2.6 | 0.00 | 0.00 | 0.00 | 27 | 997.0 |
| 20260502161205 | 85 | 82 | 2.6 | 3.5 | 0.00 | 0.00 | 0.00 | 27 | 997.0 |
| 20260502160805 | 85 | 72 | 1.7 | 3.5 | 0.00 | 0.00 | 0.00 | 27 | 997.0 |
| 20260502160405 | 85 | 81 | 2.6 | 4.3 | 0.00 | 0.00 | 0.00 | 27 | 997.0 |
| 20260502151956 | 82 | 83 | 4.3 | 7.0 | 0.00 | 0.00 | 0.00 | 29 | 997.6 |
| 20260502151556 | 82 | 64 | 3.5 | 4.3 | 0.00 | 0.00 | 0.00 | 29 | 997.6 |
| 20260502151157 | 82 | 72 | 1.7 | 4.3 | 0.00 | 0.00 | 0.00 | 29 | 997.7 |
| 20260502150756 | 82 | 43 | 3.5 | 4.3 | 0.00 | 0.00 | 0.00 | 30 | 997.7 |
| 20260502150356 | 81 | 75 | 3.5 | 5.2 | 0.00 | 0.00 | 0.00 | 31 | 997.8 |
| 20260502130729 | 68 | 113 | 2.6 | 5.2 | 0.00 | 0.00 | 0.00 | 39 | 999.0 |
| 20260502130329 | 68 | 105 | 3.5 | 7.0 | 0.00 | 0.00 | 0.00 | 40 | 999.0 |
| 20260502123524 | 68 | 99 | 3.5 | 5.2 | 0.00 | 0.00 | 0.00 | 41 | 999.4 |
| 20260502123124 | 67 | 110 | 6.1 | 8.7 | 0.00 | 0.00 | 0.00 | 41 | 999.4 |
| 20260502122724 | 67 | 113 | 1.7 | 4.3 | 0.00 | 0.00 | 0.00 | 41 | 999.4 |
| 20260502122324 | 67 | 15 | 2.6 | 5.2 | 0.00 | 0.00 | 0.00 | 41 | 999.5 |
| 20260502121922 | 67 | 80 | 3.5 | 7.0 | 0.00 | 0.00 | 0.00 | 41 | 999.6 |
| 20260502121519 | 67 | 276 | 0.9 | 4.3 | 0.00 | 0.00 | 0.00 | 41 | 999.6 |
| 20260502121119 | 67 | 276 | 1.7 | 2.6 | 0.00 | 0.00 | 0.00 | 40 | 999.7 |
| 20260502120720 | 67 | 53 | 2.6 | 4.3 | 0.00 | 0.00 | 0.00 | 41 | 999.7 |
| 20260502120320 | 66 | 113 | 3.5 | 6.1 | 0.00 | 0.00 | 0.00 | 41 | 999.8 |
| 20260502115918 | 66 | 108 | 5.2 | 7.8 | 0.00 | 0.00 | 0.00 | 42 | 999.8 |
| 20260502115518 | 66 | 112 | 1.7 | 7.8 | 0.00 | 0.00 | 0.00 | 41 | 999.9 |
| 20260502115118 | 66 | 103 | 2.6 | 4.3 | 0.00 | 0.00 | 0.00 | 42 | 1000.0 |
| 20260502114718 | 66 | 167 | 2.6 | 5.2 | 0.00 | 0.00 | 0.00 | 42 | 1000.0 |
| 20260502114318 | 66 | 24 | 2.6 | 5.2 | 0.00 | 0.00 | 0.00 | 42 | 1000.1 |
| 20260502113908 | 66 | 65 | 5.2 | 7.0 | 0.00 | 0.00 | 0.00 | 42 | 1000.1 |
| 20260502113508 | 66 | 72 | 1.7 | 5.2 | 0.00 | 0.00 | 0.00 | 42 | 1000.2 |
| 20260502113107 | 66 | 82 | 3.5 | 5.2 | 0.00 | 0.00 | 0.00 | 42 | 1000.2 |
| 20260502112706 | 65 | 106 | 3.5 | 7.0 | 0.00 | 0.00 | 0.00 | 42 | 1000.3 |
| 20260502112306 | 65 | 66 | 1.7 | 3.5 | 0.00 | 0.00 | 0.00 | 41 | 1000.3 |
| 20260502111904 | 65 | 105 | 1.7 | 4.3 | 0.00 | 0.00 | 0.00 | 41 | 1000.3 |
| 20260502111504 | 65 | 70 | 2.6 | 6.1 | 0.00 | 0.00 | 0.00 | 41 | 1000.3 |
| 20260502111104 | 65 | 210 | 1.7 | 2.6 | 0.00 | 0.00 | 0.00 | 41 | 1000.4 |
| 20260502110702 | 65 | 151 | 3.5 | 6.1 | 0.00 | 0.00 | 0.00 | 42 | 1000.4 |
| 20260502110302 | 65 | 74 | 2.6 | 5.2 | 0.00 | 0.00 | 0.00 | 43 | 1000.5 |
| 20260502105900 | 65 | 74 | 3.5 | 7.0 | 0.00 | 0.00 | 0.00 | 43 | 1000.6 |
| 20260502105500 | 65 | 75 | 2.6 | 4.3 | 0.00 | 0.00 | 0.00 | 43 | 1000.7 |
| 20260502105100 | 65 | 90 | 2.6 | 4.3 | 0.00 | 0.00 | 0.00 | 43 | 1000.7 |
| 20260502104700 | 65 | 105 | 2.6 | 5.2 | 0.00 | 0.00 | 0.00 | 43 | 1000.8 |
| 20260502104300 | 65 | 108 | 5.2 | 7.0 | 0.00 | 0.00 | 0.00 | 43 | 1000.8 |
| 20260502103858 | 65 | 56 | 4.3 | 7.0 | 0.00 | 0.00 | 0.00 | 42 | 1000.8 |
| 20260502103458 | 65 | 24 | 2.6 | 4.3 | 0.00 | 0.00 | 0.00 | 42 | 1000.8 |
| 20260502103058 | 65 | 66 | 6.1 | 10.4 | 0.00 | 0.00 | 0.00 | 42 | 1000.9 |
| 20260502102658 | 65 | 42 | 5.2 | 7.0 | 0.00 | 0.00 | 0.00 | 43 | 1001.0 |
| 20260502102258 | 65 | 38 | 6.1 | 9.6 | 0.00 | 0.00 | 0.00 | 43 | 1001.0 |
| 20260502101856 | 64 | 29 | 4.3 | 6.1 | 0.00 | 0.00 | 0.00 | 45 | 1001.0 |
| 20260502101456 | 64 | 102 | 3.5 | 5.2 | 0.00 | 0.00 | 0.00 | 45 | 1001.1 |
| 20260502101057 | 64 | 135 | 2.6 | 5.2 | 0.00 | 0.00 | 0.00 | 45 | 1001.1 |
| 20260502100656 | 64 | 107 | 3.5 | 7.0 | 0.00 | 0.00 | 0.00 | 46 | 1001.2 |
| 20260502100256 | 64 | 90 | 7.0 | 10.4 | 0.00 | 0.00 | 0.00 | 46 | 1001.2 |
| 20260502091449 | 63 | 113 | 3.5 | 6.1 | 0.00 | 0.00 | 0.00 | 47 | 1001.6 |
| 20260502091049 | 63 | 74 | 3.5 | 6.1 | 0.00 | 0.00 | 0.00 | 47 | 1001.6 |
| 20260502090641 | 63 | 104 | 1.7 | 4.3 | 0.00 | 0.00 | 0.00 | 47 | 1001.6 |
| 20260502090240 | 63 | 93 | 3.5 | 6.1 | 0.00 | 0.00 | 0.00 | 47 | 1001.6 |
| 20260502071420 | 57 | 19 | 1.7 | 1.7 | 0.00 | 0.00 | 0.00 | 63 | 1002.0 |
| 20260502071019 | 57 | 333 | 0.0 | 0.9 | 0.00 | 0.00 | 0.00 | 63 | 1002.0 |
| 20260502070619 | 57 | 330 | 0.0 | 0.0 | 0.00 | 0.00 | 0.00 | 64 | 1002.0 |
| 20260502070219 | 56 | 330 | 0.0 | 0.9 | 0.00 | 0.00 | 0.00 | 65 | 1001.9 |
| 20260502065817 | 56 | 20 | 0.9 | 1.7 | 0.00 | 0.00 | 0.00 | 66 | 1001.9 |
| 20260502065417 | 56 | 72 | 0.0 | 0.9 | 0.00 | 0.00 | 0.00 | 67 | 1001.9 |
| 20260502065017 | 55 | 61 | 0.9 | 1.7 | 0.00 | 0.00 | 0.00 | 67 | 1001.9 |
| 20260502064617 | 55 | 16 | 0.0 | 0.9 | 0.00 | 0.00 | 0.00 | 67 | 1002.0 |
| 20260502064217 | 55 | 16 | 0.0 | 0.9 | 0.00 | 0.00 | 0.00 | 68 | 1002.0 |
| 20260502063807 | 54 | 22 | 0.9 | 0.9 | 0.00 | 0.00 | 0.00 | 68 | 1002.0 |
| 20260502063406 | 54 | 29 | 0.0 | 0.0 | 0.00 | 0.00 | 0.00 | 69 | 1001.9 |
| 20260502063005 | 54 | 24 | 0.0 | 0.0 | 0.00 | 0.00 | 0.00 | 70 | 1002.0 |
| 20260502062601 | 54 | 41 | 0.9 | 1.7 | 0.00 | 0.00 | 0.00 | 70 | 1001.9 |
| 20260502062201 | 53 | 33 | 0.9 | 1.7 | 0.00 | 0.00 | 0.00 | 71 | 1001.9 |
| 20260502061759 | 53 | 215 | 0.9 | 0.9 | 0.00 | 0.00 | 0.00 | 71 | 1001.9 |
| 20260502061359 | 53 | 214 | 0.9 | 0.9 | 0.00 | 0.00 | 0.00 | 71 | 1002.0 |
| 20260502060959 | 52 | 214 | 0.9 | 0.9 | 0.00 | 0.00 | 0.00 | 72 | 1002.0 |
| 20260502060559 | 52 | 214 | 0.9 | 0.9 | 0.00 | 0.00 | 0.00 | 73 | 1001.9 |
| 20260502060159 | 52 | 214 | 0.9 | 0.9 | 0.00 | 0.00 | 0.00 | 73 | 1001.9 |
| 20260502055757 | 51 | 214 | 0.9 | 0.9 | 0.00 | 0.00 | 0.00 | 73 | 1001.9 |